Location: Dodgeville, WI 53533, USA
(43.0344°N, 90.0900°W)
Time: 03:57:25
(UTC-06:00)

Tiangong 2 - Visible Passes

Search period start: 17 February 2019 00:00
Search period end: 27 February 2019 00:00
Orbit: 381 x 390 km, 42.8° (Epoch: 16 February)

Date Brightness Start Highest point End Pass type
(mag) Time Alt. Az. Time Alt. Az. Time Alt. Az.
17 Feb 1.2 18:07:16 10° W 18:10:26 77° S 18:13:35 10° ESE visible
17 Feb 3.4 19:44:14 10° W 19:45:58 22° WSW 19:45:58 22° WSW visible
18 Feb 2.1 18:44:50 10° W 18:47:51 40° SSW 18:49:45 19° SE visible
19 Feb 3.5 19:22:55 10° WSW 19:25:03 17° SSW 19:25:54 15° S visible
20 Feb 3.0 18:23:15 10° W 18:25:59 26° SSW 18:28:42 10° SSE visible
